Regional Weather Roundup
Issued by NWS

Home | Current Version | Previous Version | Graphics & Text | Print | Product List | Glossary On
Versions: 1 2 3 4 5 6 7 8 9 10 11 12 13 14 15 16 17 18 19 20 21 22 23 24 25 26 27 28 29 30 31 32 33 34 35 36 37 38 39 40 41 42 43 44 45 46 47 48 49 50
000
ASUS43 KMKX 280000
RWRWI

WISCONSIN REGIONAL WEATHER ROUNDUP
NATIONAL WEATHER SERVICE MILWAUKEE/SULLIVAN WI
700 PM CDT SUN JUL 27 2014

NOTE: "FAIR" INDICATES FEW OR NO CLOUDS BELOW 12,000 FEET WITH NO
SIGNIFICANT WEATHER AND/OR OBSTRUCTIONS TO VISIBILITY.

WIZ001-002-006>008-014>016-023>028-280100-
NORTHWEST WISCONSIN

CITY           SKY/WX    TMP DP  RH WIND       PRES   REMARKS
SUPERIOR ARPT  CLOUDY    61  56  84 NW3       30.06S
ASHLAND        MOSUNNY   62  52  69 CALM      30.05R
6HR MIN TEMP:  56; 6HR MAX TEMP:  63; 6HR PCP:  0.01;

HAYWARD        CLOUDY    63  53  70 N8        30.05R
6HR MIN TEMP:  59; 6HR MAX TEMP:  64; 6HR PCP:  0.01;

SIREN          CLOUDY    64  55  73 E6        30.06R
RICE LAKE      MOSUNNY   65  53  65 N14G21    30.04S
6HR MIN TEMP:  64; 6HR MAX TEMP:  73;

LADYSMITH      MOSUNNY   64  53  67 N12G18    30.03R
6HR MIN TEMP:  62; 6HR MAX TEMP:  70;

EAU CLAIRE     PTSUNNY   69  57  65 N14G26    29.97R
MENOMONIE      CLEAR     69  55  62 N17G24    30.00R
6HR MIN TEMP:  69; 6HR MAX TEMP:  77;

NEW RICHMOND   MOSUNNY   68  55  63 N15G23    30.03R
OSCEOLA        PTSUNNY   67  58  73 N12       30.06R
$$

WIZ003>005-009-010-017-018-280100-
NORTH CENTRAL WISCONSIN

CITY           SKY/WX    TMP DP  RH WIND       PRES   REMARKS
WOODRUFF       MOSUNNY   62  53  72 N15       29.99R
RHINELANDER    MOSUNNY   60  51  72 N10       29.98R
6HR MIN TEMP:  59; 6HR MAX TEMP:  67; 6HR PCP:  0.08;

EAGLE RIVER    SUNNY     60  47  62 N13       29.97R
LAND O LAKES   MOSUNNY   62  51  66 N10       29.99R
PHILLIPS       CLOUDY    61  51  69 N14G20    30.00R
6HR MIN TEMP:  59; 6HR MAX TEMP:  66;

TOMAHAWK       CLOUDY    59  53  78 N7G18     29.98R
MEDFORD        CLOUDY    63  57  81 N15G24    29.96R
MERRILL        CLOUDY    62  56  80 N12G21    29.96R
$$

WIZ029-030-035-036-043>047-280100-
CENTRAL WISCONSIN

CITY           SKY/WX    TMP DP  RH WIND       PRES   REMARKS
WAUSAU         CLOUDY    64  55  72 N16G25    29.92R
6HR MIN TEMP:  62; 6HR MAX TEMP:  74; 6HR PCP:  0.35;

MOSINEE        PTSUNNY   64  59  82 N14G23    29.93R
MARSHFIELD     PTSUNNY   68  59  73 N13G22    29.93R
6HR MIN TEMP:  67; 6HR MAX TEMP:  76; 6HR PCP:  0.01;

STEVENS POINT  CLOUDY    64  58  83 N10G17    29.90R
WAUPACA        PTSUNNY   68  62  83 N9        29.88R
6HR MIN TEMP:  67; 6HR MAX TEMP:  78; 6HR PCP:  0.12;

WAUTOMA        NOT AVBL
WISC RAPIDS    SUNNY     69  59  70 MISG      29.91R
6HR MIN TEMP:  64; 6HR MAX TEMP:  78; 6HR PCP:  0.07;

CAMP DOUGLAS   PTSUNNY   66  64  94 VRB7      29.91R
$$

WIZ011>013-019>022-031-037>040-048>050-280100-
NORTHEAST WISCONSIN

CITY           SKY/WX    TMP DP  RH WIND       PRES   REMARKS
ANTIGO         CLOUDY    61  55  81 N12G18    29.94R
STURGEON BAY   CLOUDY    63  52  67 N20G28    29.85R
6HR MIN TEMP:  61; 6HR MAX TEMP:  64; 6HR PCP:  0.33;

GREEN BAY      CLOUDY    67  57  70 N16       29.86R
6HR MIN TEMP:  66; 6HR MAX TEMP:  76; 6HR PCP: TRACE;

MANITOWOC      NOT AVBL
APPLETON       PTSUNNY   66  57  72 N21G31    29.86R
CLINTONVILLE   PTSUNNY   68  54  60 N16G23    29.88R
OSHKOSH        CLOUDY    68  60  75 N21       29.84R
6HR MIN TEMP:  65; 6HR MAX TEMP:  77; 6HR PCP:  0.04;

$$

WIZ032>034-041-042-053>061-280100-
SOUTHWEST WISCONSIN

CITY           SKY/WX    TMP DP  RH WIND       PRES   REMARKS
LA CROSSE      MOSUNNY   76  60  57 NW15      29.91R
6HR MIN TEMP:  70; 6HR MAX TEMP:  79; 6HR PCP: TRACE;

SPARTA         MOSUNNY   71  60  70 N8        29.91R
VIROQUA        FAIR      71  60  69 NW14      29.92R
BOSCOBEL       MOSUNNY   77  59  53 NW10      29.90R
6HR MIN TEMP:  70; 6HR MAX TEMP:  81; 6HR PCP: TRACE;

PRAIRIE DU CHI MOSUNNY   75  56  50 NW16G23   29.90R
PLATTEVILLE    FAIR      73  58  59 NW16G24   29.90R
$$

WIZ056-057-062-063-064-067-068-280100-
SOUTH CENTRAL WISCONSIN

CITY           SKY/WX    TMP DP  RH WIND       PRES   REMARKS
BARABOO/DELLS  PTSUNNY   71  59  66 N13G20    29.87R
LONE ROCK      NOT AVBL
WATERTOWN      CLOUDY    72  60  66 N15G21    29.81R
MADISON        MOSUNNY   71  61  70 N16G22    29.85R
6HR MIN TEMP:  65; 6HR MAX TEMP:  78; 6HR PCP:  0.03;

MIDDLETON      MOCLDY    70  62  75 NW14      29.85R
MONROE         SUNNY     73  55  53 NW20G26   29.85R
JANESVILLE     MOSUNNY   73  59  60 NW17G24   29.83R
$$

WIZ051-052-058>065-066-070>072-280100-
SOUTHEAST WISCONSIN

CITY           SKY/WX    TMP DP  RH WIND       PRES   REMARKS
MILWAUKEE      PTSUNNY   71  61  70 NW10      29.80R
6HR MIN TEMP:  65; 6HR MAX TEMP:  83; 6HR PCP:  0.27;

WAUKESHA       NOT AVBL
MILWAUKEE/TIMM SUNNY     70  61  73 NW9       29.81R
RACINE         MOSUNNY   71  57  61 N13G21    29.81R
6HR MIN TEMP:  69; 6HR MAX TEMP:  83; 6HR PCP: TRACE;

BURLINGTON     MOSUNNY   70  55  59 NW13G25   29.80R
KENOSHA        PTSUNNY   74  58  57 NW9       29.79R
6HR MIN TEMP:  72; 6HR MAX TEMP:  84; 6HR PCP: TRACE;

FOND DU LAC    CLOUDY    69  59  70 N16G25    29.84R
6HR MIN TEMP:  66; 6HR MAX TEMP:  77; 6HR PCP:  0.09;

SHEBOYGAN      CLOUDY    66  60  81 N14G24    29.81R
6HR MIN TEMP:  62; 6HR MAX TEMP:  76; 6HR PCP:  0.15;

WEST BEND      SUNNY     68  59  73 NW10G20   29.81R
JUNEAU         CLOUDY    69  56  64 N13G22    29.84R
$$

LSZ147-162-280100-
LAKE SUPERIOR

STATION/POSITION TIME  TEMP    WIND        PRES    WAVE
                       AIR SEA DIR/SP/G            HT/PER
                 (UTC) (F)     (DEG/KT/KT) (MB)    (FT/S)
W MID LAKE BUOY  2250   48 42  280/  6/  8 1015.8R   1/ 4
PORT WING        2300   58     280/  8/  8 1017.3R
SAXON HARBOR     2300             CALM     1016.9R
$$

LMZ867-665-643>646-280100-
LAKE MICHIGAN

STATION/POSITION TIME  TEMP    WIND        PRES    WAVE
                       AIR SEA DIR/SP/G            HT/PER
                 (UTC) (F)     (DEG/KT/KT) (MB)    (FT/S)
N MID LAKE BUOY  2250   60 55  360/ 19/ 23 1007.7R   3/ 4
NORTHPORT PIER   2300   63     350/ 24/ 27 1009.8R
KEWAUNEE LAKESHO 2300   64     360/ 12/ 18 1009.9R
SHEBOYGAN LAKESH 2300   58     360/ 10/ 12 1008.5R
PORT WASHINGTON  2340           30/  7/ 16 1009.5R
ATWATER BUOY     2300   60     310/  6     1009.0R
MILWAUKEE LAKESH 2300   69     300/  8/ 12   N/A
S MID LAKE BUOY  2250   65 62  310/ 17/ 19 1006.8R   2/ 4
KENOSHA   LAKESH 2300   74     310/ 13/ 22 1007.5R
$$

TC  - TEMPERATURE IN CELSIUS
VSB - VISIBILITY IN STATUTE MILES
WCI - WIND CHILL INDEX
HX  - HEAT INDEX



USA.gov is the U.S. government's official web portal to all federal, state and local government web resources and services.